Regional Weather Roundup
Issued by NWS Cleveland, OH

Home | Current Version | Previous Version | Graphics & Text | Print | Product List | Glossary On
Versions: 1 2 3 4 5 6 7 8 9 10 11 12 13 14 15 16 17 18 19 20 21 22 23 24 25 26 27 28 29 30 31 32 33 34 35 36 37 38 39 40 41 42 43 44 45 46 47 48 49 50
000
ASUS41 KCLE 310510
RWRCLE
OHIO REGIONAL WEATHER ROUNDUP
NATIONAL WEATHER SERVICE CLEVELAND, OH
100 AM EDT SUN JUL 31 2016

NOTE: "FAIR" INDICATES FEW OR NO CLOUDS BELOW 12,000 FEET WITH NO
SIGNIFICANT WEATHER AND/OR OBSTRUCTIONS TO VISIBILITY.

OHZ001>008-015>018-024>027-034-035-043-044-310600-
   NORTHWEST OHIO

CITY           SKY/WX    TMP DP  RH WIND       PRES   REMARKS
DEFIANCE       CLOUDY    70  67  90 N6        29.98F FOG
FINDLAY        PTCLDY    73  67  81 E5        29.95F
TOLEDO EXPRESS PTCLDY    70  70 100 CALM      29.96F
TOLEDO EXEC    CLOUDY    73  71  93 E3        29.97F
LIMA           PTCLDY    70  68  93 S6        29.97F
$$

OHZ009>014-019>023-028>033-038-089-310600-
   NORTHEAST OHIO

CITY           SKY/WX    TMP DP  RH WIND       PRES   REMARKS
CLE-HOPKINS    CLEAR     69  65  86 SE6       29.98F
CLE-LAKEFRONT  CLEAR     72  68  87 S5        29.95F
CUY CO. ARPT   NOT AVBL
LORAIN-ELYRIA  FOG       66  64  93 SW6       29.97F VSB 3/4
ASHTABULA      MOCLDY    68  68 100 SE3       29.99R
AKRON-CANTON   MOCLDY    70  65  84 SE5       29.98F
WOOSTER        CLOUDY    66  66 100 SW3       29.99F FOG
MANSFIELD      CLOUDY    69  68  96 S5        29.99F
YOUNGSTOWN     PTCLDY    67  66  97 CALM      29.98F FOG
$$

OHZ042-051>053-060>062-070>072-077>081-310600-
  SOUTHWEST OHIO

CITY           SKY/WX    TMP DP  RH WIND       PRES   REMARKS
CINC-COVINGTON MOCLDY    74  73  97 CALM      29.99S
CINC-LUNKEN    CLOUDY    72  72 100 CALM      29.98S
HAMILTON       CLOUDY    71  68  90 CALM      29.99S
DAYTON         PTCLDY    72  68  87 CALM      29.99S
WRIGHT-PAT AFB MOCLDY    74  70  86 E2        29.98S
DAYTON GENERAL CLEAR     72  64  76 CALM      29.98S
WILMINGTON     CLEAR     71  70  96 S3        29.99S
$$

OHZ036-037-039>041-045>050-054>059-063>069-073>076-082>088-310600-
  CENTRAL AND SOUTHEAST OHIO

CITY           SKY/WX    TMP DP  RH WIND       PRES   REMARKS
COLUMBUS       CLOUDY    72  69  90 SE5       29.97S
OSU AIRPORT    PTCLDY    70  69  97 CALM      29.98S
BOLTON FIELD   CLOUDY    72  70  93 CALM      29.98F
RICKENBACK AFB CLOUDY    71  67  89 NE3       29.97F
NEWARK         HVY RAIN  70  69  97 VRB5      29.97F VSB 1
MARION         MOCLDY    72  68  87 CALM      29.99S
LANCASTER      CLEAR     68  67  96 CALM      29.99S
ZANESVILLE     PTCLDY    70  68  93 CALM      29.98F
NEW PHILLY     MOCLDY    73  69  87 CALM      29.98F FOG
$$




USA.gov is the U.S. government's official web portal to all federal, state and local government web resources and services.